Location: Berlise
(49.6641°N, 4.1077°E)
Time: 19:55:11
(UTC+00:00)

Cosmos 1300 - Pass Details

Date: 27 January 2021
Orbit: 511 x 513 km, 82.5° (Epoch: 27 February)

Event Time Altitude Azimuth Distance (km) Brightness Sun altitude
Rises 05:40:17 0° 192° (SSW) 2,615 6.3 -16.5°
Reaches altitude 10° 05:42:24 10° 194° (SSW) 1,734 5.3 -16.1°
Maximum altitude 05:46:12 77° 280° (W) 533 2.5 -15.5°
Drops below altitude 10° 05:50:03 10° 7° (N) 1,750 5.3 -14.9°
Sets 05:52:12 0° 9° (N) 2,642 6.3 -14.6°
